Terminal Aerodrome Forecast
Issued by NWS Omaha/Valley, NE

Home | Current Version | Previous Version | Text Only | Print | Product List | Glossary On
Versions: 1 2 3 4 5 6 7 8 9 10 11 12 13 14 15 16 17 18 19 20 21 22 23 24 25 26 27 28 29 30 31 32 33 34 35 36 37 38 39 40 41 42 43 44 45 46 47 48 49 50
000
FTUS43 KOAX 260520
TAFOMA
TAF
KOMA 260520Z 2606/2706 VRB05KT P6SM SCT050 BKN110
      TEMPO 2607/2611 4SM TSRA BKN035CB
     FM261100 16005KT P6SM OVC060
     FM261900 32010KT P6SM OVC040
     FM270100 33006KT P6SM BKN040=

USA.gov is the U.S. government's official web portal to all federal, state and local government web resources and services.